Zurück zum Katalog

STARLINK-5636

AktivKommunikationVLEO
NORAD 55454·PAYLOAD·🇺🇸 United States

Gestartet Feb 2, 2023 von Cape Canaveral Space Force Station

Loading…

Nächste Überflüge (nächste 24 Stunden)

TLE

AktuellSource: CelesTrak SupGP

Epoche: Sep 14, 2026, 21:05 UTC

1 55454C 23015F   26257.87895833 -.00026462  00000+0 -95843-3 0  2577
2 55454  43.0018 340.2349 0001249 271.0757 194.7875 15.27592469    13

Verfolge STARLINK-5636 in Echtzeit mit AllMySat

Download on the App Store